Theta_e
296 296 296 295 295 295 295 295 294 294 294 293 293 293 293 293 292 292 291 291 291 290 290 290 290 289 288 288 287 286 286 285 285 285 284 284 284 284 284 284 284 284 283 283 283 283 283 283 283 283 283 283 282 281 281 280 279 278 278 277 277 277 277 277 276 276 277 277 277 277 276 276 276 276 276 276 276 277 276 276 276 276 276 276 276
297 297 296 295 295 295 295 295 294 294 293 293 293 292 292 292 292 291 291 291 291 290 290 289 289 289 288 287 287 286 286 285 285 285 284 284 284 284 284 284 283 283 283 283 283 283 283 283 283 283 282 282 281 281 280 279 278 278 277 276 276 276 275 275 275 275 275 275 275 275 275 275 275 275 275 275 276 276 277 276 276 276 276 276 276
297 296 295 294 295 294 294 294 293 293 293 293 292 292 292 292 291 291 290 290 290 290 290 289 289 288 288 287 287 286 285 285 285 285 284 284 284 284 284 283 283 283 283 283 283 283 282 282 282 282 282 281 281 280 280 279 278 277 276 276 275 275 275 274 274 273 273 274 274 275 275 274 275 275 275 275 275 276 276 276 276 276 276 277 277
296 295 295 295 295 294 293 293 293 293 293 292 292 292 292 291 291 290 290 290 289 289 289 289 288 288 287 287 286 286 285 285 284 284 284 284 284 284 283 283 283 283 283 283 283 283 283 282 282 282 282 281 280 279 279 279 278 277 276 275 275 274 274 274 273 273 273 273 274 274 274 274 275 275 275 276 276 276 276 276 276 276 277 277 277
296 295 295 295 294 293 293 293 292 292 292 292 293 292 292 291 290 290 289 289 289 289 288 288 288 288 287 287 286 285 285 284 284 284 284 284 284 284 283 283 283 283 283 283 283 283 283 283 282 282 281 280 280 279 279 278 277 276 275 275 274 274 274 273 273 273 273 273 273 274 274 275 275 275 275 276 276 276 276 276 277 277 277 277 277
295 295 295 294 294 293 293 293 292 292 292 292 292 292 291 290 290 289 289 289 288 288 288 288 287 287 287 287 286 286 285 284 284 284 284 284 283 283 283 283 283 283 283 283 283 283 283 283 282 281 281 281 280 279 279 278 277 276 275 275 274 274 273 273 274 273 273 273 274 274 275 275 275 275 276 276 276 276 277 277 277 277 277 278 277
295 295 295 294 294 293 293 293 292 293 292 292 292 291 290 290 289 289 288 288 288 287 287 287 287 287 287 286 286 286 285 284 284 283 283 283 283 282 282 283 282 282 282 282 283 283 283 282 281 281 281 281 280 280 279 278 277 276 275 274 274 274 274 274 274 274 274 274 274 275 275 275 275 276 276 276 277 277 277 277 278 278 278 277 277
294 295 294 294 294 293 293 293 293 293 292 291 291 290 290 289 289 289 288 287 287 287 287 287 286 286 286 286 286 285 284 284 283 283 283 282 282 282 282 282 282 282 282 282 282 282 281 281 280 281 281 280 280 279 279 278 276 275 274 274 274 274 274 274 274 274 274 274 275 275 275 275 276 276 277 277 277 277 278 278 278 277 277 277 277
295 294 293 293 294 293 293 293 292 292 291 291 291 290 290 289 289 288 287 287 287 287 286 286 286 285 285 285 285 284 284 284 283 283 283 282 282 281 282 282 282 281 281 280 280 280 280 279 280 280 280 279 278 278 278 277 276 275 275 274 274 275 275 275 275 275 275 275 275 275 276 276 277 277 278 278 278 278 278 277 277 277 277 277 277
295 294 293 293 293 293 293 292 292 292 291 291 290 290 289 289 288 287 287 286 286 286 286 285 285 285 285 284 284 283 283 283 283 283 283 283 282 281 281 281 281 281 280 279 279 278 278 278 279 279 278 278 277 277 277 276 275 275 275 275 275 275 275 275 275 275 275 275 276 276 277 277 277 278 278 278 278 277 277 277 277 277 277 277 277
295 294 294 294 293 293 292 292 292 291 291 291 290 289 289 288 287 287 286 286 286 285 285 285 285 285 284 284 283 283 282 282 283 283 283 282 282 281 281 280 280 280 280 279 278 277 277 277 277 277 277 277 276 276 276 275 275 275 276 276 276 276 276 276 276 276 276 276 277 277 277 278 278 277 277 277 277 277 277 277 277 277 277 277 277
295 294 294 294 293 292 292 292 291 291 291 290 289 289 288 287 287 286 285 285 285 285 284 284 284 284 284 283 283 282 282 282 282 282 282 281 281 281 280 280 279 279 279 279 278 277 277 276 276 276 276 276 276 275 276 276 277 277 277 277 277 277 277 277 277 277 277 277 278 278 278 278 277 277 277 277 277 277 277 277 276 276 277 277 277
294 294 294 293 293 292 292 291 291 291 290 290 289 288 287 287 286 285 285 285 284 284 284 284 283 283 283 282 282 282 282 281 281 281 281 281 281 280 280 279 279 278 278 278 277 277 276 276 276 276 276 276 275 275 275 276 276 276 276 276 277 277 277 277 278 278 278 278 278 278 277 277 277 277 277 277 277 276 276 276 276 277 277 277 277
293 293 293 292 292 292 291 291 291 290 290 289 288 287 287 286 286 285 285 284 284 283 283 283 283 283 282 282 281 281 281 281 281 281 281 280 280 280 279 278 278 278 278 278 277 277 276 276 276 276 276 276 275 275 275 275 275 275 275 275 276 276 276 277 277 277 277 277 277 277 276 276 276 277 276 276 276 276 276 277 277 276 276 275 275
292 291 291 291 291 291 290 290 290 289 289 288 287 287 286 285 285 284 284 284 283 283 283 282 282 282 281 281 281 280 280 280 280 281 281 281 280 279 278 277 277 277 277 276 276 276 276 276 276 276 276 276 275 274 274 274 274 274 274 275 275 276 276 276 276 276 276 276 276 276 276 276 277 276 276 276 277 277 277 276 275 274 273 273 272
291 291 290 290 290 289 289 289 289 288 288 287 286 286 285 285 284 284 283 283 283 282 282 282 282 281 281 281 280 280 279 279 280 281 282 282 280 278 277 277 276 276 275 275 276 276 276 276 276 276 276 275 274 274 274 274 274 274 275 275 276 276 276 276 276 276 276 276 277 277 277 277 276 276 276 277 277 276 275 274 273 272 272 272 272
291 290 289 289 289 288 289 288 288 288 287 286 285 285 284 284 284 283 283 282 282 282 281 281 281 281 280 280 280 279 279 279 281 282 283 282 281 278 276 276 276 275 275 275 276 276 276 276 276 276 275 274 274 274 275 275 275 275 276 276 276 275 275 275 276 276 276 276 276 276 275 276 276 276 276 276 275 274 273 272 271 271 271 271 271
290 290 289 289 289 288 288 288 287 287 286 285 285 284 284 283 283 282 282 282 281 281 281 281 280 280 280 279 279 279 278 279 281 282 283 283 281 278 276 276 275 275 275 275 275 276 275 276 276 275 275 274 274 275 276 277 276 276 276 276 275 275 275 276 276 275 274 274 274 274 274 274 274 274 274 273 272 271 271 271 270 270 270 270 270
290 290 289 289 289 288 288 287 287 286 286 285 284 284 283 283 282 282 282 281 281 281 280 280 280 279 279 279 279 279 278 279 281 283 283 283 281 278 276 276 276 275 275 275 275 275 275 275 275 275 274 274 275 275 277 277 277 276 276 275 275 276 276 275 274 274 273 273 273 273 273 273 273 272 272 271 270 270 270 269 269 270 270 270 270
291 290 290 289 289 288 288 287 287 286 286 285 284 283 283 282 282 281 281 281 281 280 280 279 279 279 279 279 278 279 278 279 280 283 283 283 281 278 276 276 276 276 275 275 275 275 275 275 275 275 275 275 275 277 277 277 277 276 276 276 276 275 275 274 273 273 273 273 273 273 272 272 271 271 270 270 269 269 269 269 269 269 270 270 271
291 291 290 290 289 288 288 287 286 286 285 284 284 283 282 282 281 281 280 280 280 279 279 279 278 278 278 278 278 278 278 278 280 282 283 283 282 279 277 276 276 276 275 275 275 274 274 274 274 275 276 276 277 277 277 277 277 276 276 276 275 275 274 274 274 274 273 273 273 272 271 270 270 269 269 269 268 268 268 269 269 269 270 270 271
290 290 290 290 289 288 288 287 286 285 285 284 283 282 282 281 281 280 280 279 279 278 278 277 277 276 276 276 277 277 277 277 279 281 283 284 282 280 278 277 277 276 275 275 274 274 274 274 274 275 277 278 277 277 276 276 277 276 276 275 275 275 274 274 274 273 273 272 271 271 270 269 268 268 268 268 268 268 268 269 269 269 270 270 270
290 289 289 290 289 289 288 287 286 285 284 284 283 282 281 281 280 279 279 278 278 277 276 276 276 275 275 275 275 276 276 276 278 281 283 283 282 281 279 278 277 276 275 275 274 274 274 274 274 276 277 277 276 276 276 276 276 275 275 274 274 274 274 273 273 272 271 270 269 269 268 267 267 267 267 267 268 268 268 268 269 269 269 269 269
289 288 288 288 289 288 288 287 285 285 284 283 282 282 281 280 279 278 278 277 277 276 275 275 275 274 274 274 274 274 275 276 277 280 282 283 283 281 279 278 277 276 275 275 274 274 274 274 275 276 276 275 275 276 276 275 275 274 273 273 273 273 272 272 271 270 269 268 267 267 267 267 266 267 267 267 267 267 268 268 268 268 268 268 269
286 286 287 287 287 288 287 286 285 284 283 283 282 281 280 279 278 277 277 277 276 275 275 275 275 274 273 273 273 273 274 275 277 280 282 283 283 281 279 278 277 276 275 274 274 274 274 275 275 275 275 275 275 275 275 274 273 272 272 272 272 271 270 270 269 268 267 267 266 266 266 266 266 266 267 267 267 267 267 267 267 268 268 268 268
282 283 285 286 286 286 286 285 285 284 283 282 282 281 279 278 277 277 276 276 276 276 275 275 275 274 273 272 272 272 273 274 276 278 280 282 282 281 279 278 278 276 275 274 274 275 275 275 275 275 275 274 274 274 273 272 271 271 270 271 270 270 269 269 268 267 266 265 265 265 266 266 266 266 266 266 266 266 267 267 267 267 268 268 268
279 280 282 284 285 285 285 284 284 283 282 281 281 280 279 278 277 277 276 276 276 276 275 275 275 274 273 272 272 272 272 273 275 277 279 281 281 281 279 278 278 276 274 275 275 275 275 275 274 274 274 273 273 272 272 271 271 270 270 270 269 269 269 269 268 266 265 265 265 265 265 265 265 265 265 266 266 266 266 267 267 267 268 268 269
277 278 279 281 283 284 284 284 283 282 281 281 280 279 278 278 277 277 277 277 276 276 276 275 275 275 273 272 272 272 272 273 274 276 278 279 280 280 279 278 278 276 275 275 275 275 275 274 273 273 273 272 272 271 270 270 270 270 269 269 269 269 269 268 267 266 265 265 265 265 265 265 265 265 265 265 265 266 266 267 267 268 268 268 269
275 276 278 279 282 284 283 283 283 282 281 280 280 279 279 278 278 278 278 277 277 277 276 276 276 275 274 273 272 272 272 272 273 275 277 279 280 280 278 278 277 276 275 275 275 274 273 273 272 272 272 271 270 269 269 269 269 269 269 269 269 269 269 268 267 266 266 265 264 264 264 264 264 265 265 265 265 266 266 267 267 268 268 269 269
274 275 277 278 280 282 283 282 282 281 281 280 279 279 279 278 278 278 277 277 277 277 277 276 276 276 275 274 274 273 273 273 274 275 277 278 279 279 278 277 277 276 275 275 274 273 272 272 271 271 270 269 269 268 268 268 268 269 269 269 269 269 268 268 267 266 265 264 264 264 264 264 264 264 264 265 266 266 267 267 267 268 268 269 269
273 275 276 278 279 281 282 282 281 280 280 280 279 278 278 277 277 277 277 277 277 277 277 277 276 276 275 275 274 274 274 274 274 276 277 278 279 279 278 277 276 275 274 274 273 272 271 270 269 269 269 268 268 268 268 268 268 269 269 269 268 268 268 267 266 265 264 264 264 263 263 263 264 264 265 265 266 266 267 267 267 268 269 269 269
272 273 275 277 278 280 281 282 281 280 279 279 278 278 277 276 276 277 277 277 277 277 278 277 277 276 276 275 275 274 274 274 275 277 278 278 279 279 277 277 276 275 275 274 272 271 270 269 268 268 268 268 268 268 268 268 268 268 268 268 268 267 267 267 266 264 264 264 263 263 263 263 264 264 265 265 266 266 266 267 268 268 269 269 269
271 273 275 276 278 280 281 282 281 280 279 278 277 277 277 276 276 276 277 277 277 277 278 278 277 277 277 276 275 275 275 275 276 277 278 278 279 278 277 277 277 276 274 273 271 269 269 269 268 267 268 268 268 268 268 268 268 267 267 268 268 267 267 266 265 265 265 264 263 263 263 263 264 264 265 265 266 266 267 267 268 269 269 269 269
271 272 274 276 278 280 281 282 281 280 279 278 277 277 276 276 276 276 276 276 276 277 277 278 278 278 277 277 276 275 275 276 277 278 278 278 278 278 277 277 277 276 274 272 271 269 268 267 267 267 268 268 267 267 267 267 267 267 267 267 267 267 266 266 265 265 265 264 263 263 263 263 264 264 265 265 265 266 267 268 268 269 269 269 269
269 270 273 276 278 280 281 282 281 280 279 278 277 276 276 276 276 276 275 275 276 276 277 277 278 278 278 277 277 276 276 277 278 278 278 278 278 278 277 277 276 275 272 271 270 269 268 267 267 267 268 267 267 267 267 267 267 267 267 266 266 265 265 265 264 264 264 263 262 262 263 263 264 264 264 265 265 266 267 268 269 269 269 269 269
269 271 273 275 278 280 281 282 281 280 279 278 277 276 276 276 275 275 275 275 276 276 276 277 277 278 278 277 277 277 277 278 278 278 278 278 278 278 277 275 274 272 270 270 270 269 268 268 267 267 267 267 267 267 267 267 267 266 266 265 265 264 264 264 264 263 263 262 262 262 263 263 264 264 264 265 266 267 268 268 269 269 269 269 268
268 270 272 274 276 278 280 281 280 279 279 278 277 276 275 275 275 275 275 275 275 276 276 276 277 277 278 277 277 277 278 278 278 278 278 278 278 277 275 273 271 269 268 268 268 268 268 267 267 267 267 267 266 267 267 267 266 266 265 265 264 264 264 264 263 262 262 262 263 263 263 263 264 264 264 265 266 267 268 269 269 269 269 268 268
268 270 271 272 273 274 276 278 279 279 278 277 276 275 275 275 275 275 275 275 275 276 276 276 277 277 277 277 277 278 278 278 278 278 279 279 277 275 273 271 270 268 268 268 268 268 267 267 267 267 267 267 266 267 267 267 266 266 265 265 264 264 264 263 263 263 263 263 263 264 263 263 263 264 264 266 267 268 268 269 269 269 268 268 267
268 269 269 270 270 271 273 275 277 277 277 276 275 274 274 274 274 274 275 275 276 276 276 276 276 276 276 276 277 278 278 279 279 279 278 276 274 272 270 269 268 268 267 267 267 267 267 267 266 266 266 266 266 266 266 266 266 265 265 264 264 264 264 264 263 264 263 264 264 263 263 263 263 264 265 266 267 268 268 269 269 268 268 267 267
267 267 268 269 270 271 273 274 276 276 275 275 274 274 274 274 274 274 275 275 275 276 276 276 276 276 276 277 277 278 279 278 277 275 273 271 270 270 269 269 268 268 267 267 267 267 267 266 266 266 266 266 266 266 266 266 266 265 265 264 264 264 264 264 263 264 264 264 264 263 263 263 263 264 265 266 267 268 269 269 268 268 267 267 267
267 268 268 269 271 272 273 275 276 276 275 274 274 273 273 274 274 274 275 275 275 275 275 275 276 276 276 277 278 278 278 276 273 271 270 270 269 269 268 268 268 268 268 267 267 266 266 266 266 266 266 266 266 266 266 266 265 265 264 264 264 264 264 264 264 264 264 264 264 263 263 263 264 265 266 267 267 268 269 268 268 267 267 267 266
266 267 268 269 271 273 274 275 276 275 274 274 273 273 273 274 274 274 275 275 275 275 275 275 275 276 277 278 278 277 276 273 270 269 269 268 268 267 268 269 269 268 268 267 267 266 266 267 267 266 266 266 266 266 266 265 265 264 264 264 264 264 264 264 264 264 264 264 263 263 263 263 264 265 266 266 267 268 268 268 267 267 267 266 266
265 265 266 268 270 272 274 275 275 274 274 273 273 273 273 273 274 274 274 274 274 274 274 274 274 275 277 277 276 274 272 269 268 267 266 266 267 268 268 268 268 268 267 267 267 267 267 267 266 266 266 265 265 265 265 265 264 264 264 264 264 264 264 264 264 264 264 263 263 263 263 264 265 265 265 266 268 268 268 267 267 267 267 266 266
265 266 267 268 270 272 274 274 274 273 273 273 273 273 273 273 273 274 274 274 274 274 273 273 274 275 275 274 272 270 268 267 266 266 266 266 267 268 268 268 267 267 266 266 266 266 266 266 266 266 265 265 265 265 265 264 264 264 264 264 264 264 264 264 264 264 264 263 264 264 264 264 264 264 265 267 268 268 267 267 267 267 266 266 266
266 267 268 270 271 273 273 274 273 272 272 272 272 272 272 273 273 273 273 273 272 272 272 273 273 272 270 269 268 267 266 265 265 265 266 266 267 267 267 267 266 266 266 266 266 266 266 266 265 265 265 265 265 265 264 264 264 264 264 264 264 264 264 264 264 264 264 264 264 264 264 264 264 264 266 268 268 267 267 267 267 266 266 266 266
268 269 270 271 272 272 272 272 272 272 271 271 271 271 272 272 272 272 272 271 271 271 271 271 270 268 267 266 266 265 265 265 265 265 266 267 267 266 266 266 265 265 265 265 266 266 266 265 265 265 265 265 265 264 264 264 264 264 264 264 264 264 264 264 264 265 265 265 265 265 265 264 264 265 267 268 267 267 267 267 267 266 266 265 265
269 270 270 271 271 271 271 271 271 271 271 271 271 271 271 271 270 270 270 269 269 269 268 267 267 266 265 265 264 264 265 265 266 266 266 266 266 265 265 265 265 265 265 265 265 265 265 265 265 265 265 265 265 264 264 264 264 264 264 264 264 264 264 264 264 265 265 266 266 266 265 265 265 266 267 267 267 267 267 267 266 266 266 265 265
269 269 269 269 269 269 269 269 270 269 269 269 269 269 269 268 268 268 268 268 267 267 266 265 265 264 264 263 263 264 265 266 266 266 266 266 265 265 265 264 264 265 265 265 265 265 265 265 265 265 265 265 265 264 264 264 264 264 264 264 264 264 264 264 265 265 265 266 266 266 266 266 267 267 268 267 267 267 267 267 266 266 265 265 265
267 267 267 267 268 268 268 268 268 268 267 267 267 266 266 266 266 266 266 266 265 265 264 264 264 263 263 263 264 265 265 266 266 265 265 265 264 264 264 264 264 264 264 264 264 264 264 264 264 265 265 265 265 264 264 264 264 264 264 264 264 264 264 264 265 265 265 266 266 266 266 267 268 268 267 267 267 267 267 266 266 265 265 265 265
265 266 266 266 266 266 266 266 266 266 265 265 265 265 265 265 265 265 265 265 264 264 263 263 263 263 263 263 263 264 265 265 265 265 264 264 264 264 263 264 264 264 264 264 264 264 264 264 264 265 265 264 264 264 264 264 264 264 264 264 264 264 264 264 265 265 266 266 266 266 267 268 268 267 267 267 267 267 266 266 265 265 265 265 265
264 264 264 264 265 265 265 265 264 264 264 264 264 264 264 264 264 264 264 264 263 263 263 263 262 263 263 263 264 264 265 265 265 264 264 264 263 263 264 264 264 264 264 264 264 264 264 264 264 264 264 264 264 264 264 264 264 264 264 264 264 264 264 265 265 265 266 266 266 267 268 268 268 267 267 267 267 267 266 266 265 265 265 265 265
Wind_Speed
37 41 43 44 45 45 46 47 47 46 43 42 43 44 43 43 44 43 42 42 43 43 43 44 45 45 45 45 45 46 45 45 43 42 40 39 38 37 35 33 31 30 29 28 27 26 25 25 24 22 21 19 18 16 15 14 13 13 14 14 15 15 15 14 10 10 17 21 21 21 20 19 19 20 24 28 29 31 32 31 30 31 32 35 36
42 45 44 42 44 46 45 44 42 42 41 41 42 42 42 43 43 42 42 43 44 44 44 44 44 45 45 45 46 46 46 46 45 44 42 41 39 38 36 35 33 32 31 30 29 28 27 26 25 23 21 19 18 17 15 14 14 14 15 15 15 15 15 15 14 11 14 19 20 21 18 14 14 18 22 26 28 30 32 32 32 31 32 33 34
42 41 39 40 43 43 42 40 39 39 41 42 43 43 43 42 42 43 43 43 43 44 45 45 45 45 45 45 45 46 46 46 46 45 44 43 42 40 38 36 35 34 33 32 31 30 28 27 26 24 22 20 19 17 15 14 14 15 15 14 14 14 13 14 16 14 15 17 17 18 17 14 16 20 23 25 26 27 29 32 32 32 33 33 33
37 36 38 41 42 40 40 40 39 40 42 43 45 46 44 42 43 43 43 43 43 44 44 44 44 45 45 46 46 46 46 46 46 46 45 44 43 42 40 38 37 36 35 34 33 32 31 29 28 25 23 21 19 17 16 15 15 15 15 13 12 12 12 13 16 17 18 19 17 17 19 19 19 19 22 25 26 27 29 31 32 32 31 30 30
36 36 38 40 40 40 41 40 40 42 44 46 47 47 45 44 43 43 43 44 44 44 44 44 45 46 47 48 47 47 47 47 47 47 46 45 44 43 41 40 39 37 36 34 33 33 32 31 29 26 24 22 20 18 17 16 16 15 14 13 11 10 11 13 15 17 20 22 22 21 20 21 21 19 20 24 28 30 31 30 30 30 28 27 27
34 36 37 39 40 41 41 41 42 44 47 48 48 46 45 44 43 43 44 45 45 44 45 45 46 48 49 49 48 48 48 48 48 48 47 46 44 43 41 40 39 37 36 35 34 33 32 30 29 27 25 23 21 19 18 17 16 15 14 12 10 10 11 13 14 16 19 22 22 22 21 22 24 23 20 22 27 32 34 33 28 26 27 27 27
32 35 38 39 39 40 41 42 44 46 48 47 44 42 42 43 42 43 43 44 44 44 45 46 48 48 48 48 48 49 49 48 48 47 47 47 45 43 42 40 39 38 36 35 34 33 32 30 28 26 24 22 21 20 18 18 16 15 13 11 10 11 12 13 14 16 18 19 20 21 22 23 25 26 24 25 26 27 30 32 28 25 27 29 30
30 34 36 38 39 41 41 42 44 46 44 41 39 39 40 41 42 42 42 43 44 45 46 46 46 46 46 47 48 48 48 48 48 47 47 46 46 44 43 42 40 38 37 35 34 33 31 29 27 25 22 21 19 19 18 17 16 15 12 11 10 11 13 14 14 15 16 17 19 21 23 24 24 25 24 22 21 20 23 28 29 29 31 31 30
30 33 34 36 40 41 40 40 42 41 38 37 38 39 40 41 42 42 43 44 44 43 43 44 44 44 44 45 46 47 48 50 50 50 49 47 46 45 44 42 41 39 37 35 33 32 31 29 26 23 21 19 17 17 16 16 15 14 12 11 11 12 13 14 15 16 15 15 17 18 18 17 18 21 21 19 20 23 26 28 30 31 34 35 31
33 32 32 36 39 38 37 37 37 36 36 37 39 39 40 40 41 42 42 42 42 41 42 43 44 45 45 45 45 47 48 49 51 52 52 50 48 45 44 42 41 39 38 36 34 32 30 27 25 22 19 18 17 16 15 14 13 11 10 10 11 12 14 15 15 15 14 14 15 15 14 15 18 20 21 22 24 27 28 28 29 32 34 33 30
33 32 34 38 38 35 34 34 34 34 36 38 38 38 39 39 40 40 40 40 41 41 42 44 45 45 46 47 47 47 48 48 50 52 52 51 49 46 44 43 40 38 38 37 35 32 30 27 24 21 19 18 17 16 14 14 14 13 12 11 12 13 14 15 15 14 13 14 14 15 16 19 21 21 22 24 26 26 26 27 28 30 28 23 24
33 33 36 37 35 33 33 33 33 35 36 37 38 38 38 38 38 39 40 41 41 42 43 44 45 45 45 46 47 47 47 48 49 50 50 49 48 46 44 42 40 38 38 37 35 33 30 27 23 21 20 19 17 16 15 15 15 14 14 14 14 15 16 16 16 15 15 15 16 16 17 20 22 23 22 23 25 26 26 26 26 29 29 25 24
32 33 34 33 32 32 31 31 33 35 36 37 37 36 37 38 39 40 41 40 40 41 43 43 44 44 45 45 46 46 45 46 48 48 48 47 47 45 42 41 40 38 38 37 34 32 31 28 25 22 20 18 17 16 17 17 14 13 13 14 15 16 16 17 17 16 17 18 18 18 19 20 22 24 22 22 25 27 27 27 26 25 26 26 26
29 30 31 30 29 29 29 30 32 34 34 34 34 35 37 39 39 39 39 39 41 42 42 43 44 44 45 44 43 43 42 43 45 46 45 45 45 44 41 39 38 38 38 37 34 32 31 29 27 24 21 20 18 18 19 18 15 14 14 15 15 15 15 15 15 15 16 18 20 21 22 21 22 24 24 23 25 27 27 26 24 22 25 32 37
30 28 27 27 25 25 26 28 29 29 29 31 33 35 37 37 37 38 39 40 42 42 41 42 42 42 42 41 40 40 40 41 43 43 43 42 42 42 40 37 36 36 36 35 33 31 30 28 27 25 23 21 19 18 18 17 16 14 14 15 15 15 14 14 14 15 17 19 21 23 22 21 22 24 26 26 25 26 26 28 30 32 36 39 40
31 29 27 25 22 21 22 24 25 25 26 28 31 33 35 35 36 37 36 37 37 37 37 39 39 39 40 39 39 37 37 38 40 40 39 38 38 39 38 37 35 34 33 32 31 29 29 28 26 24 22 20 19 18 18 17 16 14 15 15 15 15 15 15 14 16 18 20 21 22 21 21 24 25 26 26 25 26 30 34 37 36 33 30 30
29 28 26 25 22 19 19 21 22 23 24 27 30 31 31 32 32 33 32 32 33 34 34 35 36 37 38 38 37 34 33 36 37 36 36 35 35 38 39 36 34 33 32 31 30 28 28 27 26 23 20 19 19 19 19 18 16 16 16 15 14 14 15 16 15 15 17 17 19 21 23 24 24 24 23 23 25 27 30 32 32 29 24 19 19
30 29 27 26 24 21 20 20 21 22 24 27 28 27 28 28 29 31 32 32 32 32 33 32 33 35 36 37 37 35 35 37 36 35 35 35 36 39 40 36 34 32 30 29 28 28 27 26 24 22 20 20 20 19 18 18 18 17 14 12 13 15 15 14 16 17 18 18 20 21 22 22 21 22 24 28 29 27 26 27 28 27 22 18 18
32 30 28 27 25 22 20 20 21 22 24 26 26 25 26 27 28 29 31 31 31 31 32 32 33 35 36 38 38 36 36 37 37 36 36 36 36 39 40 37 33 31 30 29 27 27 27 25 22 21 21 20 19 18 18 18 17 15 13 12 13 14 14 13 16 19 21 21 21 20 20 22 25 28 32 34 31 25 23 25 26 26 24 23 23
34 32 29 27 24 22 20 19 20 22 24 24 24 24 25 26 27 28 29 29 29 30 31 32 33 33 35 37 38 38 38 38 37 36 37 37 37 39 39 37 34 33 32 31 29 28 28 26 22 21 21 19 18 18 18 16 15 13 12 12 12 13 14 15 17 18 19 20 19 20 24 28 32 34 32 30 27 23 23 24 24 26 26 27 28
36 34 31 28 25 22 20 19 19 20 22 22 21 22 24 25 27 28 28 28 28 28 29 30 30 30 32 35 36 36 38 40 40 37 37 37 37 39 39 37 36 36 33 31 30 29 28 28 26 24 22 19 18 17 16 14 13 12 11 11 10 11 12 14 16 16 17 20 23 27 31 32 32 30 27 26 25 24 24 24 24 25 25 26 29
36 35 32 30 26 23 20 18 18 18 19 19 20 21 22 24 26 28 28 27 27 27 27 27 27 27 28 31 33 34 35 39 40 39 38 39 37 38 40 37 35 36 34 31 29 29 29 29 27 24 22 20 17 15 13 12 11 10 10 9 8 9 10 13 16 17 19 23 27 30 32 30 28 26 24 24 25 24 24 24 23 24 26 29 31
35 34 32 30 28 24 20 18 17 17 18 19 20 21 22 23 25 26 27 26 26 25 25 26 25 24 25 28 30 32 33 36 39 38 38 39 36 34 37 37 34 34 34 31 29 29 27 26 24 23 20 18 15 14 13 11 9 8 8 7 7 8 11 15 17 18 21 24 26 28 29 26 24 23 23 24 24 24 24 25 25 28 31 35 36
34 33 32 30 28 26 21 18 17 18 18 19 21 21 23 24 24 26 26 26 25 24 24 25 23 22 26 28 28 30 32 35 38 37 37 39 36 32 33 34 31 30 31 29 28 27 25 24 23 21 18 16 14 13 12 10 9 8 6 5 7 11 14 16 17 18 20 21 22 25 26 24 22 23 24 24 24 25 26 27 29 32 35 38 40
33 33 32 30 29 27 24 20 18 18 19 21 22 23 24 25 24 25 26 26 25 23 22 24 23 22 26 30 28 29 32 34 36 35 34 37 36 31 30 31 29 28 27 26 25 25 25 24 22 19 17 16 16 14 14 13 11 9 7 7 11 14 15 16 16 16 17 18 20 22 24 24 24 24 24 23 24 26 28 30 32 34 36 39 42
34 33 32 30 29 28 25 23 20 20 21 23 25 26 27 27 26 26 26 25 24 23 22 23 22 22 27 32 30 31 33 34 35 34 31 33 35 32 29 29 28 27 26 26 25 24 23 21 19 18 18 18 18 17 16 15 13 12 11 12 14 14 14 14 13 13 15 17 18 21 23 25 25 26 25 24 25 28 29 31 35 36 36 37 41
34 32 32 32 30 26 25 24 22 22 22 24 25 26 27 28 26 26 26 25 23 22 22 22 22 23 28 31 31 33 35 35 35 35 34 35 35 33 32 32 30 28 27 26 25 24 22 20 19 20 20 19 18 17 15 14 14 13 13 13 13 12 12 12 12 12 15 17 19 21 24 25 25 27 26 26 27 29 29 30 34 36 36 37 37
32 32 33 33 30 27 26 25 24 23 24 26 27 27 28 29 29 29 31 31 29 26 25 25 26 28 32 34 32 31 33 35 36 38 39 38 36 35 34 34 32 32 31 30 29 27 24 23 22 22 20 18 16 15 14 14 13 13 13 13 12 11 11 11 11 13 15 16 18 21 23 24 25 26 26 27 28 29 29 29 32 35 38 36 31
33 34 35 33 30 28 26 25 26 25 25 26 28 29 30 32 32 32 32 33 32 30 29 29 29 28 31 35 34 31 31 36 40 40 39 38 37 36 36 35 35 36 35 35 34 31 27 25 24 22 20 17 16 15 14 14 13 13 13 12 11 11 11 11 12 13 13 14 17 20 22 24 25 26 26 27 29 29 29 29 31 34 36 34 30
32 34 33 31 30 28 25 25 25 25 25 24 25 27 29 31 32 30 28 29 31 29 26 26 28 28 29 33 35 35 35 38 39 38 37 36 36 36 36 37 38 38 37 37 35 31 28 26 23 22 20 19 18 18 17 16 15 14 12 11 10 10 10 11 12 12 13 14 17 19 22 23 25 25 25 27 30 31 31 31 32 33 33 31 30
28 28 27 26 27 26 24 24 24 24 25 24 23 22 22 24 27 28 25 25 26 27 24 22 24 28 29 30 32 31 30 30 33 35 37 37 37 35 34 36 38 37 37 36 33 29 27 25 22 22 22 20 20 19 18 16 15 13 11 10 10 9 10 11 11 12 13 15 17 19 21 23 24 25 25 27 30 33 33 33 33 33 32 31 29
27 27 27 27 28 28 26 25 24 22 23 22 22 21 19 17 18 22 23 22 21 23 24 22 22 25 29 30 30 29 27 29 33 36 37 37 36 35 35 36 36 34 34 34 30 27 26 25 23 23 24 22 21 20 18 16 14 11 10 10 10 10 11 11 12 13 14 16 18 20 21 22 24 25 26 27 30 32 34 33 33 32 33 33 32
30 30 30 29 28 28 26 25 23 22 21 21 21 21 19 16 13 15 19 21 20 21 24 24 23 24 27 29 31 31 30 33 36 37 37 37 36 34 34 35 34 32 32 31 28 26 26 25 24 25 26 24 21 19 17 14 12 10 9 11 11 11 12 12 12 14 15 16 18 20 21 23 24 25 27 27 28 31 32 33 33 33 30 30 31
32 33 34 32 29 27 26 24 22 22 22 22 21 21 21 20 18 15 14 14 15 18 22 24 25 25 27 29 31 31 32 36 38 38 37 37 36 35 34 33 31 30 30 31 29 27 26 25 25 26 25 23 20 18 15 12 10 9 9 10 11 11 12 12 13 14 16 17 19 21 22 23 24 25 28 28 28 29 31 31 32 30 28 28 30
38 37 37 35 32 28 27 26 23 22 22 22 22 22 22 21 20 19 17 14 12 15 19 22 25 26 27 28 30 32 34 37 38 39 39 38 37 36 34 30 28 27 28 29 28 28 28 27 26 25 24 21 18 16 14 11 9 8 8 9 10 11 12 13 14 15 16 18 19 20 21 22 24 26 28 29 28 28 29 30 31 30 30 32 32
34 32 31 31 29 26 26 25 23 23 23 23 23 23 22 21 21 20 19 18 16 15 16 19 23 25 26 27 29 32 34 37 39 40 40 39 39 37 33 29 27 28 28 29 28 27 28 27 26 25 23 20 17 15 12 10 9 7 7 8 9 11 12 13 15 15 16 17 19 20 22 24 26 27 27 28 28 27 29 31 32 32 33 33 33
34 31 29 28 26 24 24 23 22 23 23 22 22 22 21 21 21 20 19 18 18 17 17 18 21 23 25 27 30 32 35 37 39 39 39 39 39 38 36 33 31 30 29 29 28 27 27 26 25 23 21 18 16 13 11 9 8 7 7 7 9 11 12 13 14 14 16 18 20 22 23 25 26 27 27 26 27 28 29 31 31 33 35 35 33
36 32 30 28 27 26 26 25 22 21 21 21 20 20 19 19 19 19 19 18 19 18 18 20 22 22 23 26 30 33 35 36 36 37 38 39 38 37 35 34 32 30 29 29 29 28 27 26 23 21 19 17 15 13 11 9 8 7 7 8 9 11 12 13 14 14 16 19 21 22 24 25 26 27 26 26 27 29 30 30 30 32 36 37 34
32 32 34 34 33 30 30 28 24 19 18 19 19 18 18 18 18 18 18 18 18 18 18 20 21 22 23 26 30 32 33 33 33 32 32 33 34 35 34 33 31 30 30 31 30 28 27 25 23 20 18 16 14 12 11 9 8 7 7 8 10 11 12 13 15 16 17 19 21 22 24 25 27 27 26 26 28 29 29 30 32 34 34 35 37
33 33 33 32 30 28 28 28 25 19 18 18 18 18 18 18 18 18 18 17 17 18 19 19 20 22 25 29 32 33 31 27 26 27 29 31 33 34 35 34 33 32 32 31 30 28 26 24 22 20 17 15 13 12 10 9 8 8 8 9 10 12 13 14 15 17 18 19 21 23 24 26 27 27 25 26 28 28 28 32 37 39 36 35 38
29 28 28 28 28 27 26 26 23 20 19 19 19 18 19 19 19 19 19 18 18 18 19 19 20 23 27 31 32 32 28 24 25 28 31 33 34 34 34 34 33 33 33 32 30 28 26 23 21 19 17 15 13 11 10 9 9 8 9 10 10 12 13 14 15 17 18 20 22 24 25 27 26 25 26 29 29 28 29 34 38 39 37 37 38
28 28 28 28 27 26 25 23 20 19 19 19 19 19 19 19 19 19 19 18 18 18 19 19 20 23 26 27 28 29 28 27 28 29 30 31 32 32 32 32 32 32 32 31 29 27 25 22 20 18 16 14 12 10 9 9 9 9 10 10 11 12 13 15 16 16 18 20 23 24 26 27 26 27 31 32 29 27 31 37 38 37 37 38 38
28 27 27 26 26 25 23 20 18 18 19 18 18 19 20 19 19 20 19 18 19 20 19 19 21 23 24 25 27 30 30 29 28 29 29 30 31 31 30 30 30 29 29 27 26 24 23 20 18 17 15 13 11 9 8 8 9 9 10 10 11 12 14 15 16 17 18 21 24 25 27 28 29 33 34 30 27 29 35 37 37 37 38 38 38
26 25 25 24 24 24 23 20 19 19 19 19 19 20 21 20 19 19 18 18 19 20 20 21 23 23 23 25 29 30 29 28 28 29 30 30 30 30 29 29 28 27 27 25 24 22 20 18 16 15 13 11 9 8 8 8 9 10 10 11 12 13 14 15 16 17 19 22 25 28 29 30 35 37 32 26 26 33 36 36 36 37 38 38 37
24 23 22 21 21 21 20 18 18 17 17 18 17 18 19 19 18 18 19 18 19 20 21 22 22 22 23 26 29 29 29 28 29 30 30 30 30 30 29 29 28 27 26 24 22 20 18 16 15 13 11 10 8 7 7 8 9 9 10 12 13 14 15 15 15 17 19 22 26 29 30 33 38 37 29 25 30 35 35 35 37 37 37 36 35
24 22 21 20 18 15 14 15 16 16 16 16 15 15 17 17 17 18 18 19 20 22 21 21 21 23 24 27 28 29 30 30 30 30 30 30 30 30 29 28 27 26 24 22 20 18 16 14 13 11 10 9 8 7 7 8 8 10 11 12 13 15 14 14 15 16 18 21 25 28 31 36 39 34 26 27 34 35 34 35 37 36 36 37 36
16 14 13 11 11 12 12 14 15 15 15 15 15 15 15 16 17 18 19 21 22 22 21 21 22 24 25 26 28 30 31 31 31 31 31 31 30 30 29 27 26 24 22 20 18 16 14 12 11 10 8 8 7 6 7 7 8 10 11 12 13 14 14 13 14 16 17 20 24 28 33 37 36 30 26 30 34 34 33 34 36 37 38 38 36
2 3 5 7 10 11 11 13 14 14 13 14 15 15 16 18 19 20 21 22 22 22 22 23 24 24 25 27 29 30 31 32 31 31 31 30 30 29 27 25 24 22 20 18 16 14 12 11 9 8 7 6 6 6 6 7 8 9 10 11 12 12 13 13 14 15 17 20 23 28 33 33 30 27 28 32 33 32 32 34 35 37 38 37 36
11 12 12 13 13 13 13 13 14 14 15 17 17 17 18 19 19 20 21 22 21 22 23 24 25 27 28 29 30 31 31 32 31 30 30 29 28 27 25 24 22 19 18 16 14 13 11 10 8 7 6 5 6 6 7 8 9 10 11 11 11 11 12 12 13 14 17 20 24 29 31 29 27 27 30 32 31 31 31 32 34 37 37 35 36
15 16 16 16 16 16 16 17 17 17 17 18 18 18 18 19 19 20 21 22 21 22 23 25 27 29 30 30 31 31 31 30 30 29 29 28 27 25 24 22 20 18 16 15 13 12 11 9 7 6 5 6 6 7 8 9 10 11 11 11 12 12 11 11 12 14 16 20 26 30 30 27 27 29 31 31 30 30 30 32 34 35 35 34 35
17 18 18 18 18 18 18 18 18 18 18 19 19 18 18 19 18 19 21 21 22 23 23 25 26 28 29 30 30 30 30 29 28 28 28 26 25 24 22 20 19 17 15 14 12 11 10 8 7 6 6 6 7 8 9 10 10 11 12 12 12 12 12 12 14 16 17 20 26 29 27 26 28 31 31 30 29 29 29 32 34 34 34 34 34
Wind_Direction
225 225 224 223 223 224 224 224 223 222 222 221 221 221 220 219 219 218 216 216 215 214 213 213 212 211 211 211 210 210 209 208 209 208 207 208 208 206 204 203 203 203 201 201 202 205 206 205 206 206 206 206 207 210 213 218 223 225 229 232 230 230 228 228 242 264 264 266 271 273 276 284 291 302 310 314 320 325 325 325 326 326 326 326 326
225 227 226 225 226 226 226 226 224 222 222 222 222 222 221 220 219 217 216 216 215 214 213 212 211 211 210 210 210 209 209 208 207 207 206 207 206 205 204 203 203 201 201 202 203 204 205 206 206 205 206 208 209 211 214 218 225 231 234 234 235 237 236 239 248 265 275 275 277 282 289 292 291 302 312 313 318 324 325 324 323 322 322 322 321
227 228 227 228 230 229 228 227 225 223 222 222 223 223 222 221 219 216 215 214 214 214 213 211 210 209 209 209 209 209 208 207 206 206 206 206 205 204 204 204 204 202 202 203 204 204 204 205 206 205 206 208 209 211 216 221 227 231 233 233 236 242 244 246 250 258 274 281 283 290 298 298 296 306 314 315 318 321 320 319 320 319 319 321 320
231 230 230 232 232 231 230 227 225 223 223 223 223 223 222 220 218 217 214 213 212 212 212 210 208 207 207 208 208 207 207 206 205 206 206 206 206 205 204 205 205 205 205 205 205 205 205 206 207 207 206 207 208 211 214 221 227 228 231 232 235 245 249 250 252 257 271 281 285 292 299 303 305 312 318 319 320 319 316 316 317 317 318 320 320
234 232 232 234 233 231 230 227 224 224 223 224 224 223 221 219 218 215 213 212 211 210 208 207 206 206 206 207 206 206 206 205 205 205 206 206 206 206 206 205 206 207 207 207 207 207 208 208 208 207 207 207 207 211 214 220 224 225 227 230 234 242 248 252 257 262 269 277 288 298 305 310 312 315 319 320 320 319 316 315 316 318 319 320 320
238 237 235 235 234 232 230 226 225 225 225 225 224 222 219 218 216 214 212 211 209 207 206 205 205 206 206 206 206 205 205 205 205 205 205 205 206 206 206 206 206 207 208 209 209 209 210 210 209 208 208 209 210 211 214 217 220 222 224 227 230 237 245 254 263 269 272 279 291 301 308 313 314 314 317 319 318 317 316 317 319 320 320 319 318
242 240 237 236 235 234 230 227 226 226 226 226 224 221 218 216 215 214 212 211 208 206 205 205 205 206 206 205 205 205 204 204 205 205 204 204 204 204 205 205 206 207 208 209 209 210 210 210 210 210 210 213 214 214 215 216 218 221 221 222 225 235 249 261 268 272 276 284 294 301 307 312 311 309 312 316 314 314 316 317 318 320 321 318 316
249 244 240 237 237 236 233 230 228 228 228 226 223 220 218 215 214 213 212 210 209 207 206 205 204 204 204 204 204 204 203 203 203 203 204 204 203 203 203 204 204 205 206 207 208 208 210 210 210 212 213 215 216 217 219 218 216 214 214 217 224 237 251 262 269 273 278 286 294 300 304 306 306 308 314 319 318 318 322 317 312 314 318 316 314
263 253 244 240 240 238 235 231 230 230 228 225 222 219 217 215 213 212 211 210 209 208 206 204 203 203 203 204 203 203 202 203 203 203 203 203 202 202 202 202 203 203 202 204 205 207 207 208 210 211 212 213 216 219 220 218 214 208 204 212 226 240 252 259 265 270 275 283 289 294 296 296 304 314 319 325 322 319 321 317 310 312 315 313 312
273 261 250 247 245 241 236 233 231 230 227 224 222 218 215 213 211 210 209 208 207 206 205 204 204 203 203 202 202 203 203 204 204 204 205 204 202 200 200 201 201 201 200 200 201 203 205 207 208 208 209 210 212 215 215 211 211 212 212 222 235 242 249 255 261 266 272 278 284 292 297 299 308 315 315 316 318 317 317 316 312 313 316 314 313
276 265 257 254 250 243 238 234 231 229 226 223 220 216 213 211 209 208 206 206 206 205 204 204 204 204 203 202 202 203 204 204 204 205 205 205 202 199 198 199 198 199 200 199 199 200 202 204 204 203 203 204 207 209 208 207 210 219 230 239 243 244 246 253 259 265 273 278 284 293 298 299 305 310 309 310 314 314 313 313 312 312 314 312 310
278 268 262 259 253 245 239 234 229 227 224 221 217 213 210 208 206 205 204 204 204 203 203 204 203 203 203 203 203 203 204 205 205 204 204 204 203 200 197 196 196 197 199 199 199 199 199 199 199 199 199 201 203 201 201 207 213 221 229 235 241 245 248 254 260 267 275 279 283 287 290 295 300 302 303 308 311 310 309 308 307 305 303 299 298
284 273 269 264 256 248 241 233 228 225 222 219 215 210 207 206 204 204 204 203 202 202 203 203 203 203 203 203 203 204 204 204 204 203 202 202 202 200 197 195 195 196 197 198 198 198 196 194 192 194 196 197 198 198 198 204 211 218 228 234 239 244 248 253 259 265 270 275 281 284 286 291 294 294 298 305 307 307 306 302 301 299 296 297 299
299 284 278 272 263 254 243 234 229 226 221 216 211 207 206 205 204 204 202 200 201 202 202 202 203 203 203 203 203 203 203 203 202 201 200 200 201 200 197 195 195 195 197 197 197 196 195 193 191 191 191 190 194 198 199 203 207 212 221 227 233 241 249 253 257 262 267 273 277 280 282 284 286 290 296 301 301 300 298 299 304 305 301 300 300
319 306 295 285 274 260 248 238 232 228 221 214 210 207 207 205 204 203 201 201 202 202 201 202 203 203 203 202 202 203 203 202 200 199 198 197 198 198 195 193 192 193 195 196 196 195 195 194 193 192 190 190 194 198 199 202 205 209 219 229 238 245 250 254 259 265 271 273 273 275 278 282 285 289 293 297 296 295 296 299 303 305 302 300 298
331 324 312 301 289 272 256 245 237 230 221 214 210 209 208 206 204 202 201 202 202 202 202 203 202 202 201 201 201 201 202 200 198 197 194 191 193 194 193 191 190 190 191 192 193 193 194 195 194 192 191 191 194 197 198 199 203 214 227 235 241 247 254 261 266 270 274 276 276 278 281 284 287 289 293 295 296 299 301 301 300 301 301 298 296
336 330 321 314 306 290 272 255 243 235 223 216 213 212 210 208 206 202 200 200 200 201 202 202 202 201 200 200 200 198 198 197 196 193 190 187 188 190 189 187 187 188 188 189 190 191 193 196 193 190 191 191 191 195 199 203 209 220 226 231 241 256 265 270 272 272 275 278 280 282 284 287 289 290 291 292 296 302 303 299 298 301 301 296 293
337 333 327 322 316 303 285 264 248 238 228 221 217 215 212 209 207 203 201 201 200 200 201 200 200 201 200 199 199 197 197 195 193 191 190 189 190 190 187 184 184 184 184 185 188 190 192 196 194 193 193 189 187 193 200 205 211 217 223 234 249 259 264 269 272 274 277 282 285 285 284 283 282 283 285 288 293 298 294 288 291 295 292 286 287
335 333 329 326 320 308 293 272 254 242 232 227 222 218 213 210 207 204 202 202 200 199 198 197 198 199 199 199 199 198 197 194 192 192 191 190 192 190 186 182 180 180 180 181 185 189 190 193 195 196 193 186 187 195 198 201 209 216 225 234 242 250 258 267 273 278 284 287 287 283 278 277 281 285 290 293 296 298 291 286 288 288 284 282 283
331 330 328 327 321 312 298 280 261 248 238 231 225 220 215 210 206 203 202 201 200 198 197 196 197 197 198 198 198 198 198 195 192 192 191 192 194 191 186 183 180 179 179 180 182 185 189 192 193 193 192 187 189 195 195 199 208 214 219 228 238 252 264 271 274 279 282 280 278 280 283 286 289 293 297 301 303 303 296 289 286 282 279 280 281
327 327 326 325 322 315 303 287 270 254 243 234 227 221 215 210 206 201 199 198 197 196 196 195 195 196 196 197 197 198 200 197 193 191 191 193 196 193 190 187 184 181 180 181 182 184 188 192 191 189 192 192 189 192 195 199 206 213 221 231 244 257 267 274 275 273 272 274 279 285 287 289 292 296 302 305 306 304 298 291 285 280 276 278 282
324 324 323 321 319 315 306 292 275 258 244 232 224 218 213 209 207 201 197 196 194 194 194 193 193 193 194 197 197 197 200 199 194 191 192 194 195 194 193 192 189 184 180 180 183 185 187 190 188 186 188 189 187 189 193 197 206 221 233 238 246 258 263 266 268 269 273 280 285 287 288 290 295 300 305 305 304 301 297 291 284 280 277 277 281
324 322 319 317 314 310 303 292 274 256 242 230 220 214 210 207 204 200 196 194 191 191 191 190 190 191 191 195 197 197 198 198 195 192 193 194 194 193 195 196 192 187 183 181 182 184 184 186 184 179 179 182 184 186 190 197 208 220 229 234 245 257 258 257 263 271 278 282 285 286 289 293 297 300 302 301 301 298 293 288 285 283 283 282 281
326 323 318 314 309 303 296 285 268 250 239 229 217 211 207 202 200 198 196 194 191 191 191 189 188 190 190 191 194 197 197 196 194 192 193 195 194 190 192 194 193 190 187 183 180 180 180 180 178 175 176 181 183 183 187 192 200 207 217 233 243 247 251 258 266 273 277 281 283 286 290 294 296 298 298 297 296 294 291 289 288 287 287 286 286
325 321 317 312 306 298 289 278 263 248 237 225 215 211 204 198 196 196 195 195 195 193 192 191 191 192 190 188 189 194 195 194 193 193 193 195 194 189 185 187 189 188 187 182 178 179 179 176 174 174 179 181 179 181 189 195 200 209 214 224 237 245 253 261 268 272 276 280 283 285 290 294 296 296 295 293 293 293 293 293 292 292 292 292 291
317 315 312 308 303 294 283 273 260 247 235 224 217 214 207 200 197 196 196 198 200 198 195 194 195 194 191 189 187 189 191 191 192 192 191 192 193 188 180 180 182 182 182 180 177 175 174 174 175 177 177 179 181 187 198 206 213 217 220 228 240 249 257 262 268 275 279 281 281 283 289 294 296 296 296 293 293 294 295 297 296 295 296 296 294
311 308 305 302 299 290 276 267 256 244 233 223 218 215 212 206 201 198 198 198 200 202 200 197 198 196 191 189 187 186 187 188 190 190 189 189 190 185 177 177 177 175 175 174 172 171 170 169 174 176 176 180 189 197 206 216 220 221 226 236 243 248 256 263 270 276 277 278 281 285 291 295 296 296 296 294 294 296 297 298 296 295 298 298 293
304 302 299 297 293 284 272 262 252 241 231 223 217 214 211 208 206 206 205 201 199 201 201 200 202 199 191 186 184 182 186 190 191 191 189 186 185 180 174 174 174 171 171 171 168 167 167 167 171 176 179 186 196 204 212 217 220 224 228 232 238 245 255 266 271 271 273 280 286 290 294 296 295 295 297 296 296 298 301 299 296 296 300 300 293
300 296 294 292 288 280 270 258 248 239 232 225 221 219 216 212 212 215 215 211 207 206 205 206 207 202 193 188 184 181 187 194 195 192 189 186 184 179 173 172 173 173 173 173 168 165 166 170 175 180 186 194 199 203 209 213 216 221 224 227 237 247 258 270 276 280 286 292 294 294 296 296 295 297 299 299 298 301 303 302 299 299 299 297 290
295 291 289 287 284 280 270 257 247 240 233 227 224 225 225 222 220 221 222 221 218 216 215 215 213 206 199 197 195 193 196 197 193 189 187 185 183 178 174 173 174 172 171 172 171 168 170 174 179 186 191 195 197 199 204 208 212 216 219 226 239 251 266 279 286 293 298 297 296 296 296 295 295 298 300 299 300 303 305 303 301 300 298 294 290
289 286 284 282 281 279 272 261 250 241 235 230 224 222 225 226 225 225 226 225 223 220 219 220 216 208 204 203 202 202 201 194 187 185 185 183 180 176 173 173 172 169 169 171 171 170 172 175 180 188 192 194 196 199 202 205 210 214 220 232 247 260 273 285 293 299 299 298 298 298 295 294 295 298 299 300 301 303 305 305 304 302 298 293 290
283 281 280 280 279 277 272 264 254 242 235 229 223 219 218 219 224 226 225 224 222 218 216 217 213 207 204 202 200 198 195 188 184 184 184 181 179 175 171 171 170 167 169 174 172 171 174 177 180 188 192 194 196 199 201 204 210 216 229 245 259 270 280 292 300 300 300 300 300 298 296 297 298 298 299 300 302 302 303 304 304 302 299 295 293
278 278 279 279 278 275 270 263 254 243 234 226 220 216 213 212 214 217 218 219 221 219 217 215 209 204 202 200 197 193 189 184 183 183 182 180 178 173 170 170 169 167 170 175 174 171 176 180 183 188 192 194 196 198 200 205 212 221 236 252 265 276 286 295 299 300 302 303 300 297 298 300 300 300 299 300 300 301 301 302 303 302 300 297 297
286 284 282 280 277 273 269 264 255 245 237 229 221 216 214 213 210 204 201 206 212 213 213 213 211 205 200 196 192 188 184 182 181 181 180 178 176 171 167 169 172 172 175 179 177 173 176 181 185 188 191 193 195 198 200 205 213 224 239 255 268 279 288 296 300 302 304 304 301 300 302 302 301 300 300 301 301 300 300 301 302 302 300 300 301
289 283 280 277 275 271 267 264 256 247 239 230 223 220 216 213 210 204 199 197 198 202 205 207 207 204 198 193 189 185 182 181 180 179 177 176 173 168 166 168 169 168 173 179 179 178 180 182 185 188 191 192 195 198 201 205 212 225 243 260 274 284 293 298 300 302 303 303 302 302 301 301 300 300 299 299 299 299 300 301 302 300 301 302 301
282 278 277 277 276 273 270 265 256 246 239 232 226 223 217 211 207 204 202 201 199 197 197 198 199 200 197 192 188 185 182 180 179 177 176 174 172 169 167 166 165 165 170 176 179 180 183 185 186 188 190 192 194 196 200 204 210 227 247 265 281 291 296 300 302 305 306 303 300 299 300 301 302 302 299 296 296 297 299 301 301 300 301 302 302
279 276 275 277 279 281 279 273 261 249 242 235 227 220 214 210 206 201 199 199 197 195 191 186 185 190 192 190 187 186 184 181 179 176 174 174 174 172 168 167 167 168 170 173 177 179 182 184 187 188 189 190 192 194 199 203 212 232 252 270 285 293 298 302 303 301 298 297 298 302 305 305 303 301 298 295 296 299 300 299 299 301 303 305 303
274 273 275 281 288 290 287 283 272 253 239 231 224 215 210 207 203 199 197 195 191 189 186 180 179 181 184 184 184 184 182 178 176 176 176 176 173 169 166 167 168 167 168 172 177 180 181 182 185 186 186 187 191 195 200 206 218 237 256 273 285 291 298 301 299 296 297 300 304 307 307 303 301 299 297 294 296 299 299 298 301 304 306 307 306
278 280 283 286 286 282 277 276 272 253 231 222 217 209 206 204 199 196 195 192 188 185 182 179 180 181 178 177 179 179 178 177 176 175 173 167 162 161 163 165 166 166 169 173 176 178 181 181 182 183 185 187 191 197 203 210 223 240 258 274 283 290 297 300 302 304 306 306 308 309 306 302 300 299 297 296 298 299 299 301 305 307 306 305 305
279 279 278 278 276 271 267 265 258 241 221 214 209 203 201 201 198 194 192 188 186 185 181 179 180 179 176 176 176 177 178 177 171 163 154 150 153 160 164 166 167 168 171 173 176 178 180 179 179 181 184 188 193 198 206 217 230 244 259 272 280 290 299 303 305 308 309 309 310 309 306 303 302 301 299 300 300 299 301 305 308 308 306 304 304
273 273 273 273 271 268 266 260 248 231 215 208 204 200 199 198 195 192 190 186 184 181 178 178 178 176 175 177 178 178 175 167 157 152 151 153 159 163 166 167 169 170 171 174 176 178 177 176 177 180 184 189 194 200 210 222 235 247 259 270 280 290 298 304 307 309 310 311 310 308 305 304 303 301 302 303 301 299 304 308 308 307 307 306 305
272 271 271 270 267 264 261 254 240 224 212 205 199 197 197 195 191 189 187 184 180 176 172 171 170 169 171 173 172 170 166 158 153 152 154 157 160 162 163 167 170 172 174 176 176 175 174 175 177 180 184 191 196 203 214 226 238 250 259 270 282 291 298 305 309 311 311 310 309 307 305 304 302 303 305 304 301 303 310 312 310 308 309 308 306
267 264 263 261 259 259 258 248 228 212 204 198 194 193 192 190 188 186 183 178 174 170 166 161 161 163 166 165 161 158 155 153 151 151 152 155 158 160 164 168 172 174 176 174 172 172 173 173 176 180 186 192 198 208 219 230 243 253 262 274 284 291 299 306 310 312 313 311 308 307 305 304 308 310 308 303 303 311 315 313 310 310 310 308 307
259 257 256 253 251 252 250 237 217 203 196 190 186 184 183 181 181 179 174 170 167 164 160 158 159 159 155 150 148 149 149 147 149 150 152 154 157 161 165 170 172 173 172 170 168 169 171 172 176 181 186 191 201 213 226 238 249 257 267 278 285 292 301 307 311 314 314 310 308 308 308 309 313 313 306 301 310 317 316 312 310 310 310 308 307
255 250 251 251 248 245 235 217 201 191 184 177 173 172 172 173 172 169 166 162 158 155 155 157 156 148 140 140 144 147 147 147 149 151 153 155 158 162 167 170 170 169 168 168 167 169 170 173 177 181 184 193 205 219 233 246 256 264 271 279 286 294 303 309 312 314 313 310 309 310 310 311 312 309 302 306 317 318 312 309 310 310 309 308 307
256 250 249 247 238 221 200 185 177 172 167 163 161 161 162 163 161 159 156 153 149 149 149 148 143 137 136 140 145 146 146 149 151 153 155 158 162 164 167 168 167 167 167 166 167 169 171 174 178 181 186 196 209 225 241 251 262 270 274 279 287 294 301 309 311 311 312 312 311 311 312 311 309 304 303 312 318 315 309 308 310 310 309 309 308
260 249 239 223 197 173 161 158 156 154 153 153 151 149 149 147 145 143 142 141 142 141 138 134 133 134 137 141 143 144 147 151 153 155 158 162 164 165 166 167 167 167 166 166 167 170 172 175 180 184 191 201 215 231 247 260 270 276 278 282 287 291 298 305 308 309 312 314 313 315 315 311 305 302 309 317 316 311 308 309 312 312 311 311 310
43 105 129 132 131 129 131 133 132 131 130 130 129 129 130 131 130 131 133 134 135 133 130 129 130 133 135 138 141 144 148 151 155 158 162 165 166 166 166 167 167 167 166 166 169 172 175 180 186 191 199 213 229 243 258 270 278 283 286 286 287 290 296 302 308 312 316 316 317 318 315 308 302 306 316 317 312 309 309 311 313 314 314 313 314
68 77 85 90 94 99 103 107 109 111 113 115 114 114 117 120 122 124 128 129 129 129 130 131 132 134 136 140 143 146 150 153 157 161 164 165 166 167 167 167 168 167 167 168 172 176 181 187 194 201 213 233 251 263 275 283 289 294 294 291 290 294 296 299 307 316 318 319 319 316 311 304 305 312 316 314 310 309 311 312 314 316 316 316 316
71 76 80 81 84 89 94 97 99 102 106 109 110 111 113 116 119 123 125 125 125 127 130 133 136 139 142 144 147 149 152 156 160 163 164 165 167 168 168 168 169 168 170 173 177 181 187 193 201 213 231 250 265 275 286 294 297 298 298 298 299 301 299 300 310 319 321 321 318 313 307 306 310 314 314 312 310 310 312 315 317 318 318 318 318
74 78 81 83 86 90 93 96 97 101 106 109 111 112 114 114 117 121 125 126 128 130 133 136 139 142 144 146 148 150 153 157 161 164 165 167 168 169 169 170 170 171 175 178 181 186 195 202 211 226 242 258 271 281 289 296 299 300 302 303 305 307 310 315 320 322 324 323 318 311 308 311 315 315 313 311 309 311 315 317 319 319 320 320 319